This demonstration page uses our WeatherBlox Daily Observations layout. Learn more.

Left ArrowRight Arrow

39.01783, -85.05884

Hourly Observations for August 8, 2017

Temp ( °F °C ) Dew Point ( °F °C ) Humidity (%) Winds ( mph kmh ) Pressure ( in mb ) Visibility ( mi km ) Precip ( " mm )
12:52 am 00:52 Partly Cloudy 66 18.9 62 16.7 87 87 NNW 3 6 30.04 1017 10 16 0.00 0.00
1:52 am 01:52 Mostly Clear 64 17.8 61 16.1 90 90 NNW 7 11 30.04 1017 10 16 0.00 0.00
2:52 am 02:52 Clear 62 16.7 61 16.1 96 96 NNW 6 9 30.04 1017 10 16 0.00 0.00
3:52 am 03:52 Mostly Clear 63 17.2 61 16.1 93 93 NNW 7 11 30.05 1018 10 16 0.00 0.00
4:52 am 04:52 Mostly Clear 62 16.7 61 16.1 96 96 N 5 7 30.05 1018 10 16 0.00 0.00
5:52 am 05:52 Clear 63 17.2 61 16.1 93 93 N 6 9 30.06 1018 10 16 0.00 0.00
6:52 am 06:52 Sunny 62 16.7 61 16.1 96 96 N 8 13 30.08 1019 8 13 0.00 0.00
7:52 am 07:52 Sunny 63 17.2 61 16.1 93 93 N 7 11 30.10 1019 9 14 0.00 0.00
8:52 am 08:52 Sunny 66 18.9 62 16.7 87 87 NNE 5 7 30.12 1020 10 16 0.00 0.00
9:52 am 09:52 Sunny 70 21.1 63 17.2 79 79 NNE 6 9 30.14 1021 10 16 0.00 0.00
10:52 am 10:52 Mostly Sunny 73 22.8 63 17.2 71 71 N 8 13 30.14 1021 10 16 0.00 0.00
11:52 am 11:52 Partly Cloudy 75 23.9 64 17.8 69 69 ENE 8 13 30.14 1021 10 16 0.00 0.00
12:52 pm 12:52 Mostly Cloudy 75 23.9 61 16.1 62 62 NNE 7 11 30.14 1021 10 16 0.00 0.00
1:52 pm 13:52 Mostly Cloudy 76 24.4 61 16.1 60 60 VRB 7 11 30.13 1020 10 16 0.00 0.00
2:52 pm 14:52 Partly Cloudy 78 25.6 60 15.6 54 54 VRB 6 9 30.12 1020 10 16 0.00 0.00
3:52 pm 15:52 Partly Cloudy 80 26.7 59 15 49 49 NNW 6 9 30.11 1020 10 16 0.00 0.00
4:52 pm 16:52 Mostly Sunny 78 25.6 56 13.3 47 47 NE 8 13 30.11 1020 10 16 0.00 0.00
5:52 pm 17:52 Mostly Sunny 79 26.1 57 13.9 47 47 N 12 19 30.10 1019 10 16 0.00 0.00
6:52 pm 18:52 Mostly Sunny 79 26.1 56 13.3 45 45 N 7 11 30.11 1020 10 16 0.00 0.00
7:52 pm 19:52 Mostly Sunny 75 23.9 56 13.3 52 52 N 9 15 30.11 1020 10 16 0.00 0.00
8:52 pm 20:52 Clear 72 22.2 55 12.8 55 55 ENE 8 13 30.12 1020 10 16 0.00 0.00
9:52 pm 21:52 Clear 71 21.7 55 12.8 57 57 E 7 11 30.14 1021 10 16 0.00 0.00
10:52 pm 22:52 Clear 69 20.6 55 12.8 61 61 E 6 9 30.15 1021 10 16 0.00 0.00
11:52 pm 23:52 Clear 67 19.4 56 13.3 68 68 Calm 30.15 1021 10 16 0.00 0.00

Powered by AerisWeather